Location: *
(35.8942°N, 23.3025°E)
Time: 22:30:38
(UTC+00:00)

CZ-2C R/B - Pass Details

Date: 21 September 2021
Orbit: 668 x 784 km, 98.2° (Epoch: 22 October)

Event Time Altitude Azimuth Distance (km) Brightness Sun altitude
Rises 02:50:59 0° 1° (N) 3,279 6.0 -17.5°
Reaches altitude 10° 02:53:31 10° 351° (N) 2,346 5.1 -17.0°
Maximum altitude 02:58:03 32° 291° (WNW) 1,323 3.3 -16.1°
Enters shadow 02:59:53 25° 254° (WSW) 1,531 3.4 -15.7°
